{"data":{"norad_id":49745,"epoch":"2026-05-24T19:12:55.265760Z","epoch_age_seconds":102950,"freshness":"FRESH","line1":"1 49745U 21115X   26144.80063965 -.00000417  00000+0 -81253-5 0  9990","line2":"2 49745  53.2150 167.4142 0001270  81.2229 278.8907 15.08839141247022","mean_motion":15.08839141,"eccentricity":0.000127,"inclination_deg":53.215,"raan_deg":167.4142,"arg_perigee_deg":81.2229,"mean_anomaly_deg":278.8907,"bstar":-8.1253e-6,"rev_number":24702,"period_min":95.437609011496,"perigee_km":538.86744344185,"apogee_km":540.62458572755,"semimajor_km":6917.8830145847,"source":"CELESTRAK","updated_at":"2026-05-25T13:38:16.835542Z"}}